This demonstration page uses our WeatherBlox Daily Observations layout. Learn more.

Hourly Observations for August 23, 2019

Temp ( °F °C ) Dew Point ( °F °C ) Humidity (%) Winds ( mph kmh ) Pressure ( in mb ) Visibility ( mi km ) Precip ( " mm )
12:00 am 00:00 Cloudy 73 22.8 70 21.1 90 90 NNE 3 6 30 1016 10 16.09344 0 0
12:48 am 00:48 Cloudy 73 23 68 20 83 83 NE 5 7 30 1016 10 16.09344 0 0
12:53 am 00:53 Cloudy 73 22.8 68 20 84 84 ENE 3 6 29.97 1015 10 16.09344 0 0
1:53 am 01:53 Cloudy 72 22.2 68 20 87 87 Calm 30 1016 10 16.09344 0 0
2:00 am 02:00 Cloudy 72 22.2 67 19.4 84 84 NNE 6 9 30.03 1017 10 16.09344 0 0
2:15 am 02:15 Cloudy with Light Rain 71 21.7 67 19.4 87 87 NE 7 11 30.03 1017 8 12.874752 0.001 0.001
2:53 am 02:53 Cloudy with Light Rain 70 21.1 68 20 93 93 NNE 3 6 30 1016 10 16.09344 0.001 0.001
3:34 am 03:34 Cloudy with Light Rain 70 21.1 67 19.4 90 90 N 6 9 30.03 1017 10 16.09344 0.001 0.001
3:53 am 03:53 Cloudy with Light Rain 69 20.6 67 19.4 93 93 N 3 6 30 1016 10 16.09344 0.01 0.254
4:02 am 04:02 Cloudy with Light Rain 69 20.6 66 18.9 90 90 NNE 6 9 30.03 1017 10 16.09344 0.001 0.001
4:53 am 04:53 Cloudy 69 20.6 65 18.3 87 87 E 6 9 30 1016 10 16.09344 0.001 0.001
5:53 am 05:53 Cloudy with Light Rain 67 19.4 64 17.8 91 91 NE 6 9 30.03 1017 6 9.656064 0.001 0.001
6:53 am 06:53 Cloudy 67 19.4 64 17.8 91 91 ENE 8 13 30.03 1017 10 16.09344 0.01 0.254
7:53 am 07:53 Cloudy 66 18.9 63 17.2 90 90 E 8 13 30.06 1018 10 16.09344 0 0
8:53 am 08:53 Mostly Cloudy 68 20 62 16.7 81 81 ENE 7 11 30.09 1019 10 16.09344 0 0
9:53 am 09:53 Cloudy 69 20.6 61 16.1 76 76 NE 7 11 30.09 1019 10 16.09344 0 0
10:53 am 10:53 Mostly Cloudy 70 21.1 62 16.7 76 76 ENE 9 15 30.12 1020 10 16.09344 0 0
11:20 am 11:20 Partly Cloudy 71 21.7 62 16.7 73 73 ENE 8 13 30.12 1020 10 16.09344 0 0
11:53 am 11:53 Partly Cloudy 72 22.2 62 16.7 71 71 E 8 13 30.12 1020 10 16.09344 0 0
12:53 pm 12:53 Mostly Cloudy 73 22.8 60 15.6 64 64 VRB 7 11 30.12 1020 10 16.09344 0 0
1:53 pm 13:53 Sunny 73 22.8 57 13.9 57 57 NE 10 17 30.12 1020 10 16.09344 0 0
2:53 pm 14:53 Sunny 75 23.9 58 14.4 55 55 E 7 11 30.12 1020 10 16.09344 0 0
3:53 pm 15:53 Mostly Cloudy 74 23.3 58 14.4 57 57 E 7 11 30.09 1019 10 16.09344 0 0
4:53 pm 16:53 Partly Cloudy 74 23.3 57 13.9 56 56 NNE 9 15 30.09 1019 10 16.09344 0 0
5:53 pm 17:53 Mostly Cloudy 74 23.3 57 13.9 56 56 ENE 7 11 30.09 1019 10 16.09344 0 0
6:53 pm 18:53 Mostly Cloudy 75 23.9 57 13.9 54 54 E 8 13 30.09 1019 10 16.09344 0 0
7:53 pm 19:53 Partly Cloudy 70 21.1 57 13.9 64 64 E 6 9 30.09 1019 10 16.09344 0 0
8:53 pm 20:53 Cloudy 69 20.6 56 13.3 63 63 ENE 5 7 30.12 1020 10 16.09344 0 0
9:53 pm 21:53 Partly Cloudy 67 19.4 54 12.2 63 63 NE 6 9 30.12 1020 10 16.09344 0 0
10:53 pm 22:53 Clear 61 16.1 56 13.3 84 84 NNE 5 7 30.15 1021 10 16.09344 0 0
11:53 pm 23:53 Clear 60 15.6 55 12.8 84 84 NE 3 6 30.18 1022 10 16.09344 0 0

Powered by AerisWeather